[[{"header":{"parameterUnit":"m.s-1","parameterCategory":1,"la1":30.2991,"la2":30.254,"lo1":-89.0895,"lo2":-89.0444,"dy":0.0017,"dx":0.0017,"nx":28,"ny":28,"refTime":"2024-02-25T03:00:00:Z","depth":0,"parameterNumber":2,"parameterNumberName":"U-component_of_WINDS"},"data":[0,0,0,0,0,0,0,0,0,0,0,0,0,0,0,0,0,0,0,0,0,0,0,0,0,0,0,0,0,0,0,0,0,0,0,0,0,0,0,0,0,0,0,0,0,0,0,0,0,0,0,0,0,0,0,0,0,0,-1.497,-1.497,0,-1.5032,-1.5033,-1.5034,-1.5056,-1.5056,-1.5056,-1.5056,-1.5117,-1.5119,-1.5121,0,0,0,0,0,0,0,0,0,0,0,0,0,-1.4867,-1.4869,-1.497,-1.497,-1.4971,-1.5032,-1.5033,-1.5034,-1.5056,-1.5056,-1.5056,-1.5056,-1.5117,-1.5119,-1.5121,0,0,0,0,0,0,0,0,0,0,0,0,0,-1.4919,-1.4869,-1.4969,-1.499,-1.4992,-1.5032,-1.5033,-1.5034,-1.5056,-1.5056,-1.5056,-1.5056,-1.5116,-1.5119,-1.5121,-1.5144,0,0,-1.513,-1.5131,0,0,0,0,0,0,0,0,-1.4916,-1.4922,-1.4986,-1.4989,-1.4991,-1.5036,-1.5019,-1.5071,-1.5057,-1.5032,-1.5056,-1.5055,-1.509,-1.5095,-1.5108,-1.5147,-1.515,-1.513,-1.5132,-1.5133,-1.5134,0,0,0,0,0,0,0,-1.4912,-1.492,-1.4994,-1.4987,-1.499,-1.4995,-1.5002,-1.5029,-1.5062,-1.5034,-1.5036,-1.5043,-1.5092,-1.5105,-1.5109,-1.5151,-1.513,-1.5132,-1.5134,-1.5135,-1.5212,-1.5212,0,0,0,0,0,0,-1.4905,-1.4917,-1.4992,-1.4996,-1.4952,-1.4997,-1.5005,-1.5022,-1.5062,-1.5068,-1.5043,-1.5044,-1.51,-1.5106,-1.5111,-1.514,-1.5133,-1.5135,-1.5137,-1.5211,-1.5212,-1.5212,0,0,0,0,0,0,-1.4903,-1.4912,-1.499,-1.4957,-1.4967,-1.4999,-1.5018,-1.5023,-1.5037,-1.5069,-1.5075,-1.5051,-1.51,-1.5108,-1.5136,-1.5143,-1.5137,-1.5139,-1.5211,-1.5211,-1.5212,-1.5199,0,0,0,0,0,0,-1.49,-1.4911,-1.4921,-1.4957,-1.4969,-1.5014,-1.5019,-1.5025,-1.5042,-1.5043,-1.5077,-1.5083,-1.5101,-1.5132,-1.5139,-1.5147,-1.5141,-1.521,-1.5211,-1.5212,-1.5199,-1.5199,-1.5199,0,0,0,0,0,-1.4896,-1.4914,-1.4921,-1.493,-1.4982,-1.5014,-1.5021,-1.5042,-1.5042,-1.5052,-1.5072,-1.5082,-1.5141,-1.5135,-1.5143,-1.5151,-1.521,-1.5211,-1.5212,-1.5199,-1.5199,-1.5199,0,0,0,0,0,0,-1.4877,-1.4919,-1.4928,-1.4958,-1.4983,-1.5018,-1.5031,-1.5042,-1.5066,-1.5066,-1.509,-1.5098,-1.5124,-1.5141,-1.5133,-1.5175,-1.5176,-1.5179,-1.5163,-1.5164,-1.5164,-1.5159,-1.5144,0,0,0,0,0,-1.4877,-1.4901,-1.4936,-1.4959,-1.4971,-1.4999,-1.5014,-1.5028,-1.5054,-1.5064,-1.5087,-1.5111,-1.5135,-1.5151,-1.5175,-1.5201,-1.5209,-1.5211,-1.5211,-1.5211,-1.5213,-1.5228,-1.5229,-1.5215,-1.5215,-1.5215,0,0,-1.4876,-1.4902,-1.4915,-1.4956,-1.4977,-1.5,-1.5007,-1.5032,-1.5049,-1.5068,-1.5096,-1.5113,-1.5142,-1.5169,-1.5183,-1.5184,-1.5219,-1.5212,-1.5212,-1.5214,-1.5229,-1.523,-1.5231,-1.5216,-1.5215,-1.5215,0,0,-1.4886,-1.4908,-1.493,-1.495,-1.4982,-1.5,-1.5005,-1.5039,-1.5052,-1.5081,-1.5095,-1.5115,-1.5156,-1.5176,-1.5191,-1.5208,-1.5217,-1.5215,-1.5215,-1.5229,-1.523,-1.5231,-1.5237,-1.5238,-1.5217,-1.5216,-1.5216,0,-1.488,-1.4916,-1.4939,-1.4963,-1.498,-1.4998,-1.502,-1.5038,-1.5075,-1.5086,-1.5087,-1.5139,-1.516,-1.5192,-1.5196,-1.5208,-1.5214,-1.5211,-1.5229,-1.523,-1.5231,-1.5237,-1.5239,-1.5216,-1.5216,-1.5216,-1.5216,0,-1.4907,-1.4932,-1.4946,-1.4982,-1.5,-1.5023,-1.5048,-1.5064,-1.5076,-1.5094,-1.5122,-1.5148,-1.5177,-1.5186,-1.5198,-1.5219,-1.5219,-1.5224,-1.5225,-1.5232,-1.5237,-1.5239,-1.5215,-1.5215,-1.5216,-1.5216,0,0,-1.4907,-1.4955,-1.496,-1.4976,-1.5012,-1.5031,-1.5054,-1.5083,-1.5096,-1.512,-1.5139,-1.5174,-1.5179,-1.5196,-1.521,-1.5223,-1.5233,-1.5226,-1.5227,-1.5226,-1.5258,-1.5254,-1.5256,-1.524,-1.524,-1.5241,-1.5255,0,-1.4921,-1.4963,-1.4984,-1.5017,-1.5039,-1.5057,-1.5077,-1.51,-1.5117,-1.5138,-1.5157,-1.5181,-1.5185,-1.5196,-1.5209,-1.5229,-1.524,-1.5228,-1.5257,-1.5258,-1.5249,-1.5259,-1.5254,-1.5267,-1.5258,-1.5258,-1.5258,0,-1.4943,-1.4968,-1.5003,-1.5036,-1.5046,-1.5064,-1.5092,-1.5112,-1.5138,-1.515,-1.5169,-1.5183,-1.5207,-1.5206,-1.5239,-1.523,-1.5243,-1.5255,-1.5256,-1.5259,-1.5258,-1.5261,-1.5272,-1.5273,-1.5262,-1.5262,-1.5261,0,-1.4939,-1.4981,-1.5008,-1.5021,-1.506,-1.5071,-1.5088,-1.5114,-1.513,-1.5155,-1.5165,-1.5191,-1.5206,-1.5226,-1.5246,-1.5244,-1.5276,-1.5278,-1.5286,-1.5285,-1.5291,-1.5291,-1.5303,-1.53,-1.53,-1.53,-1.53,0,-1.4952,-1.4972,-1.5006,-1.5022,-1.5045,-1.5068,-1.5091,-1.5108,-1.5132,-1.5151,-1.5168,-1.5185,-1.5211,-1.5232,-1.5248,-1.5272,-1.5278,-1.5288,-1.5292,-1.5286,-1.5285,-1.5295,-1.5294,-1.5301,-1.5301,-1.5301,-1.5301,0,-1.495,-1.4974,-1.5004,-1.5038,-1.5047,-1.5062,-1.5091,-1.5107,-1.5125,-1.5149,-1.5156,-1.5184,-1.5209,-1.5232,-1.5265,-1.5276,-1.53,-1.5305,-1.5291,-1.5293,-1.53,-1.5298,-1.5318,-1.5322,-1.5317,-1.5317,-1.5317,0,-1.4957,-1.4973,-1.5009,-1.5024,-1.504,-1.5063,-1.5079,-1.5103,-1.5119,-1.515,-1.5162,-1.5188,-1.5211,-1.525,-1.5273,-1.5298,-1.5304,-1.5309,-1.5308,-1.5301,-1.5303,-1.5302,-1.5303,-1.5309,-1.5309,-1.5309,-1.5309,0,-1.4966,-1.4977,-1.5,-1.5027,-1.5047,-1.5069,-1.5092,-1.5103,-1.513,-1.5147,-1.5173,-1.5191,-1.5225,-1.5251,-1.5278,-1.5295,-1.5306,-1.5309,-1.5312,-1.5306,-1.5297,-1.5302,-1.529,-1.5308,-1.5308,-1.5308,-1.5308,-1.5308,-1.4969,-1.4984,-1.5011,-1.5036,-1.5056,-1.5077,-1.5093,-1.5113,-1.5136,-1.5166,-1.5178,-1.5204,-1.523,-1.5269,-1.5285,-1.5305,-1.5307,-1.5312,-1.5313,-1.5314,-1.5313,-1.5294,-1.5311,-1.5311,-1.5311,-1.5311,-1.5311,0,-1.4978,-1.4996,-1.5019,-1.5051,-1.5071,-1.508,-1.5106,-1.5121,-1.5145,-1.5168,-1.519,-1.5219,-1.5244,-1.5269,-1.5295,-1.5307,-1.5313,-1.5313,-1.5312,-1.5316,-1.5309,-1.5304,-1.5308,-1.5308,-1.5308,-1.5308,-1.5308,-1.5308,-1.4985,-1.5011,-1.5025,-1.506,-1.5078,-1.5104,-1.5118,-1.5137,-1.5156,-1.5188,-1.521,-1.5226,-1.5249,-1.5278,-1.5301,-1.5307,-1.5316,-1.5315,-1.5323,-1.5316,-1.5316,-1.5316,-1.5311,-1.5317,-1.5317,-1.5327,-1.5328,-1.5328]},{"header":{"parameterUnit":"m.s-1","parameterCategory":1,"la1":30.2991,"la2":30.254,"lo1":-89.0895,"lo2":-89.0444,"dy":0.0017,"dx":0.0017,"nx":28,"ny":28,"refTime":"2024-02-25T03:00:00:Z","depth":0,"parameterNumber":3,"parameterNumberName":"V-component_of_WINDS"},"data":[0,0,0,0,0,0,0,0,0,0,0,0,0,0,0,0,0,0,0,0,0,0,0,0,0,0,0,0,0,0,0,0,0,0,0,0,0,0,0,0,0,0,0,0,0,0,0,0,0,0,0,0,0,0,0,0,0,0,3.9667,3.9668,0,3.97,3.9701,3.9701,3.9726,3.9726,3.9727,3.9727,3.976,3.976,3.9761,0,0,0,0,0,0,0,0,0,0,0,0,0,3.9628,3.9628,3.9667,3.9668,3.9668,3.97,3.9701,3.9701,3.9726,3.9726,3.9727,3.9727,3.9759,3.976,3.9761,0,0,0,0,0,0,0,0,0,0,0,0,0,3.9651,3.9628,3.9667,3.9684,3.9686,3.97,3.9701,3.9701,3.9726,3.9726,3.9727,3.9727,3.9759,3.976,3.9761,3.976,0,0,3.9764,3.9764,0,0,0,0,0,0,0,0,3.965,3.9652,3.9682,3.9683,3.9685,3.9709,3.9699,3.9721,3.9726,3.9711,3.9727,3.9727,3.9743,3.9745,3.975,3.9761,3.9763,3.9764,3.9765,3.9765,3.9765,0,0,0,0,0,0,0,3.9648,3.9651,3.968,3.9682,3.9684,3.9691,3.9695,3.9703,3.9724,3.9712,3.9714,3.9718,3.9744,3.9749,3.9751,3.9763,3.9764,3.9765,3.9765,3.9766,3.9779,3.9779,0,0,0,0,0,0,3.9644,3.965,3.9679,3.9681,3.9668,3.9692,3.9696,3.9701,3.9724,3.9728,3.9717,3.9719,3.9747,3.975,3.9752,3.9755,3.9765,3.9766,3.9767,3.9779,3.9779,3.9779,0,0,0,0,0,0,3.9643,3.9646,3.9678,3.9666,3.9671,3.9692,3.9698,3.9702,3.9707,3.9728,3.9732,3.9719,3.9748,3.9751,3.9759,3.9756,3.9766,3.9767,3.978,3.9779,3.9779,3.9758,0,0,0,0,0,0,3.9641,3.9646,3.9645,3.9666,3.9671,3.9683,3.9698,3.9702,3.9709,3.9711,3.9731,3.9734,3.9748,3.9757,3.976,3.9758,3.9768,3.978,3.978,3.9779,3.9759,3.9757,3.9756,0,0,0,0,0,3.964,3.9637,3.9644,3.9648,3.9671,3.9683,3.9686,3.9702,3.9709,3.9709,3.9723,3.9734,3.9756,3.9758,3.9761,3.9759,3.978,3.978,3.9779,3.976,3.9758,3.9756,0,0,0,0,0,0,3.9613,3.9639,3.9649,3.9652,3.9665,3.9687,3.9687,3.9699,3.971,3.9711,3.9731,3.9735,3.9741,3.9751,3.9752,3.9761,3.977,3.977,3.9754,3.9752,3.9751,3.9748,3.9769,0,0,0,0,0,3.9608,3.9616,3.9638,3.9639,3.9645,3.9665,3.9671,3.9683,3.9697,3.9703,3.9717,3.973,3.9741,3.9747,3.9758,3.9761,3.9767,3.9762,3.976,3.9759,3.9758,3.9764,3.9763,3.9777,3.9777,3.9777,0,0,3.9596,3.9612,3.9615,3.9634,3.9646,3.9654,3.9669,3.9677,3.9684,3.9704,3.9712,3.9724,3.974,3.9747,3.975,3.9755,3.9756,3.9758,3.9756,3.9757,3.9763,3.9762,3.9761,3.9777,3.9777,3.9777,0,0,3.958,3.9592,3.9595,3.9608,3.9626,3.964,3.964,3.9661,3.967,3.968,3.9696,3.9704,3.9721,3.9733,3.9741,3.9734,3.9746,3.9737,3.9727,3.9732,3.9731,3.973,3.9729,3.9729,3.9737,3.9737,3.9737,0,3.9564,3.9577,3.9595,3.9603,3.9612,3.9632,3.9637,3.9647,3.9668,3.9674,3.9679,3.9703,3.9715,3.9726,3.9725,3.973,3.9733,3.9735,3.973,3.9729,3.9729,3.9728,3.9727,3.9736,3.9736,3.9736,3.9736,0,3.9557,3.9566,3.9566,3.9587,3.9596,3.9602,3.9623,3.963,3.9642,3.9655,3.9666,3.9682,3.9698,3.9701,3.9712,3.9715,3.9718,3.9726,3.9735,3.9726,3.9726,3.9726,3.9734,3.9735,3.9735,3.9735,0,0,3.9522,3.9556,3.9556,3.9567,3.959,3.9598,3.9606,3.9622,3.9629,3.9643,3.9651,3.9667,3.9676,3.9685,3.9698,3.9703,3.9699,3.9711,3.9712,3.9709,3.9705,3.9699,3.9698,3.9707,3.9707,3.9707,3.9704,0,3.9511,3.9526,3.9545,3.9554,3.9564,3.9585,3.9592,3.9608,3.9622,3.9633,3.9648,3.966,3.967,3.9676,3.9682,3.9698,3.9698,3.9698,3.9715,3.9716,3.9711,3.9698,3.969,3.9687,3.9704,3.9704,3.9704,0,3.9498,3.9513,3.9524,3.9549,3.9554,3.956,3.9578,3.9588,3.9607,3.9617,3.963,3.9645,3.9656,3.9664,3.968,3.968,3.9689,3.9698,3.9698,3.9701,3.9709,3.97,3.9686,3.9686,3.9704,3.9704,3.9704,0,3.9474,3.9497,3.9507,3.9516,3.9545,3.9549,3.9562,3.9581,3.9591,3.9607,3.9614,3.9631,3.964,3.9653,3.9673,3.9677,3.9688,3.9697,3.9697,3.9697,3.9698,3.9698,3.9686,3.9703,3.9703,3.9703,3.9703,0,3.946,3.9465,3.9497,3.9503,3.9512,3.9534,3.9542,3.9556,3.9574,3.9584,3.9603,3.9613,3.9638,3.965,3.9666,3.9678,3.9682,3.9691,3.9695,3.969,3.9689,3.9695,3.9696,3.9702,3.9702,3.9703,3.9703,0,3.9434,3.9455,3.9468,3.9495,3.9503,3.9508,3.9532,3.9539,3.9556,3.9569,3.9573,3.9598,3.9614,3.9636,3.9658,3.9669,3.968,3.9685,3.9673,3.9676,3.9675,3.9676,3.9668,3.9668,3.9684,3.9684,3.9683,0,3.9423,3.9428,3.9458,3.9466,3.9479,3.9492,3.9503,3.9526,3.9537,3.9561,3.9566,3.9584,3.96,3.9625,3.9646,3.9664,3.9671,3.9667,3.9673,3.9669,3.9672,3.9672,3.9674,3.9665,3.9665,3.9664,3.9664,0,3.9402,3.9414,3.9428,3.9448,3.946,3.9477,3.9494,3.95,3.9527,3.9538,3.9556,3.9568,3.9592,3.9611,3.9632,3.9646,3.966,3.9662,3.9664,3.9658,3.9651,3.9657,3.967,3.9662,3.9662,3.9663,3.9663,3.9663,3.9385,3.9392,3.9414,3.9431,3.9447,3.9463,3.9473,3.9491,3.9506,3.9528,3.9541,3.9559,3.9581,3.9612,3.9625,3.964,3.9645,3.9646,3.9647,3.9647,3.9646,3.9649,3.9644,3.9644,3.9644,3.9644,3.9644,0,3.9366,3.9383,3.9398,3.9422,3.9436,3.945,3.947,3.9481,3.9496,3.9516,3.9532,3.9553,3.9572,3.9595,3.9616,3.9624,3.9631,3.9628,3.9628,3.9632,3.9639,3.9637,3.9622,3.9622,3.9622,3.9622,3.9622,3.9622,3.9359,3.9372,3.9386,3.9409,3.9425,3.9443,3.9454,3.947,3.9486,3.9509,3.9526,3.9541,3.9563,3.9586,3.9604,3.9611,3.9618,3.9614,3.9622,3.9629,3.9631,3.9633,3.963,3.9615,3.9615,3.9613,3.9613,3.9613]}]]